Location: Cahas Mountain Overlook
(37.0833°N, 80.1000°W)
Time: 07:24:12
(UTC-05:00)

Vanguard 2 Rocket - Pass Details

Date: 13 February 2026
Orbit: 553 x 3287 km, 32.9° (Epoch: 5 March)

Event Time Altitude Azimuth Distance (km) Brightness Sun altitude
Rises 20:31:30 0° 273° (W) 4,132 11.4 -31.0°
Reaches altitude 10° 20:36:24 10° 248° (WSW) 2,620 9.9 -32.0°
Maximum altitude 20:39:03 13° 221° (SW) 2,141 9.1 -32.5°
Enters shadow 20:40:15 12° 207° (SSW) 2,091 8.9 -32.8°
